CDT,Max TemperatureF,Mean TemperatureF,Min TemperatureF,Max Dew PointF,MeanDew PointF,Min DewpointF,Max Humidity, Mean Humidity, Min Humidity, Max Sea Level PressureIn, Mean Sea Level PressureIn, Min Sea Level PressureIn, Max VisibilityMiles, Mean VisibilityMiles, Min VisibilityMiles, Max Wind SpeedMPH, Mean Wind SpeedMPH, Max Gust SpeedMPH,PrecipitationIn, CloudCover, Events, WindDirDegrees
2013-9-1,82,69,55,55,53,49,86,61,36,30.05,30.00,29.93,10,10,10,17,10,24,0.00,1,,351
2013-9-2,87,68,49,59,54,47,96,65,34,30.08,30.00,29.92,10,10,10,18,10,24,0.00,0,,105
2013-9-3,85,74,62,62,60,57,90,67,43,29.93,29.90,29.87,10,10,10,15,9,18,T,1,Rain,103
2013-9-4,88,78,68,67,64,62,84,64,43,30.08,29.98,29.92,10,10,10,17,10,23,0.03,2,Rain-Thunderstorm,91
2013-9-5,91,79,66,66,64,63,93,69,44,30.06,29.99,29.90,10,10,10,18,8,23,T,1,Rain-Thunderstorm,102
2013-9-6,101,84,67,66,64,57,87,59,31,29.89,29.84,29.78,10,10,10,17,8,21,0.00,0,,96
2013-9-7,96,84,71,67,65,60,84,58,31,29.95,29.89,29.83,10,10,10,18,11,25,0.00,0,,87
2013-9-8,88,77,66,70,67,62,93,75,57,29.98,29.82,29.62,10,10,9,28,14,32,0.01,2,Rain,73
2013-9-9,83,75,66,71,63,60,93,74,54,29.84,29.74,29.59,10,10,8,31,10,38,0.02,2,Rain-Thunderstorm,286
2013-9-10,82,71,60,61,56,52,93,65,36,30.04,29.96,29.85,10,10,10,17,7,24,T,0,,281
2013-9-11,88,72,55,56,52,41,93,57,21,30.17,30.10,30.03,10,10,10,13,7,21,0.00,1,,262
2013-9-12,81,67,52,49,44,38,77,50,23,30.30,30.23,30.19,10,10,7,16,5,22,0.00,2,,57
2013-9-13,83,64,45,49,44,37,89,55,21,30.19,30.07,29.91,10,10,10,22,10,26,0.00,1,,132
2013-9-14,85,73,60,61,57,48,90,67,43,29.93,29.81,29.68,10,10,6,25,12,30,0.01,7,Rain,36
2013-9-15,70,58,45,59,54,45,97,73,49,30.30,30.14,29.93,10,10,4,18,9,23,T,6,Rain,42
2013-9-16,72,57,42,52,47,42,100,74,47,30.29,30.21,30.01,10,6,0,29,14,36,0.00,4,Fog,123
2013-9-17,80,69,58,61,56,51,87,68,48,30.00,29.81,29.64,10,10,10,22,16,28,0.00,4,,140
2013-9-18,95,78,61,63,58,51,93,59,24,29.63,29.55,29.47,10,9,6,30,10,37,0.00,0,,133
2013-9-19,68,61,54,58,46,41,78,61,44,30.05,29.90,29.67,10,10,10,30,20,37,0.00,3,,315
2013-9-20,71,57,42,43,38,33,89,58,26,30.10,30.03,29.96,10,10,9,24,9,28,0.00,1,,319
2013-9-21,84,61,38,52,43,34,92,59,26,29.99,29.80,29.61,10,10,10,26,15,33,0.00,0,,112
2013-9-22,93,77,60,57,52,46,78,50,21,29.59,29.51,29.43,10,10,10,32,16,38,0.00,0,,136
2013-9-23,78,68,57,58,52,48,100,69,38,29.81,29.60,29.46,10,9,2,24,15,29,0.46,4,Rain,152
2013-9-24,77,65,52,56,48,37,100,63,25,29.98,29.90,29.83,10,10,10,13,6,15,0.00,1,,273
2013-9-25,84,69,53,56,50,44,89,60,31,29.84,29.64,29.48,10,10,10,33,18,44,0.00,0,,136
2013-9-26,76,66,56,56,52,45,86,62,38,29.76,29.62,29.47,10,10,10,23,13,29,0.00,0,,3
2013-9-27,57,53,48,47,44,41,93,77,61,29.86,29.80,29.74,10,10,3,29,14,37,0.59,8,Rain,343
2013-9-28,69,57,44,46,41,33,93,60,26,29.91,29.87,29.83,10,10,10,24,11,31,0.04,3,Rain,288
2013-9-29,83,61,39,45,39,35,92,55,18,29.89,29.71,29.56,10,10,10,23,7,30,0.00,0,,189
2013-9-30,88,69,49,50,42,37,67,42,17,29.68,29.54,29.42,10,10,10,35,10,44,0.00,0,,257